Location: Beugnon
(47.6222°N, 3.7850°E)
Time: 16:21:09
(UTC+00:00)

STARLINK-1246 - Pass Details

Date: 09 April 2020
Orbit: 549 x 550 km, 53.0° (Epoch: 03 June)

Event Time Altitude Azimuth Distance (km) Brightness Sun altitude
Rises 19:06:08 0° 293° (WNW) 2,723 9.8 -7.2°
Reaches altitude 10° 19:08:26 10° 299° (WNW) 1,828 8.0 -7.6°
Maximum altitude 19:12:28 48° 15° (NNE) 730 4.3 -8.2°
Drops below altitude 10° 19:16:29 10° 90° (E) 1,824 5.7 -8.8°
Enters shadow 19:16:31 10° 90° (E) 1,835 5.7 -8.8°
